TimeCDT,TemperatureF,Dew PointF,Humidity,Sea Level PressureIn,VisibilityMPH,Wind Direction,Wind SpeedMPH,Gust SpeedMPH,PrecipitationIn,Events,Conditions,WindDirDegrees,DateUTC
12:14 AM,3.2,-2.2,78,30.12,10.0,Calm,Calm,-,N/A,,Clear,0,2013-03-22 05:14:00
12:34 AM,3.2,-2.2,78,30.11,10.0,NW,3.5,-,N/A,,Clear,310,2013-03-22 05:34:00
12:55 AM,3.2,-0.4,85,30.11,10.0,Calm,Calm,-,N/A,,Clear,0,2013-03-22 05:55:00
1:14 AM,3.2,-2.2,78,30.11,10.0,Calm,Calm,-,N/A,,Clear,0,2013-03-22 06:14:00
1:34 AM,-0.4,-5.8,78,30.11,10.0,Calm,Calm,-,N/A,,Clear,0,2013-03-22 06:34:00
1:54 AM,-0.4,-5.8,78,30.11,10.0,Calm,Calm,-,N/A,,Clear,0,2013-03-22 06:54:00
2:14 AM,1.4,-4.0,78,30.12,10.0,Calm,Calm,-,N/A,,Clear,0,2013-03-22 07:14:00
2:35 AM,-0.4,-7.6,72,30.12,10.0,Calm,Calm,-,N/A,,Clear,0,2013-03-22 07:35:00
2:54 AM,-0.4,-5.8,78,30.12,10.0,Calm,Calm,-,N/A,,Clear,0,2013-03-22 07:54:00
3:14 AM,-0.4,-5.8,78,30.11,10.0,Calm,Calm,-,N/A,,Clear,0,2013-03-22 08:14:00
3:35 AM,-0.4,-5.8,78,30.11,7.0,Calm,Calm,-,N/A,,Clear,0,2013-03-22 08:35:00
3:54 AM,-0.4,-5.8,78,30.11,10.0,Calm,Calm,-,N/A,,Clear,0,2013-03-22 08:54:00
4:14 AM,-2.2,-7.6,78,30.11,7.0,Calm,Calm,-,N/A,,Clear,0,2013-03-22 09:14:00
4:35 AM,-2.2,-7.6,78,30.10,7.0,Calm,Calm,-,N/A,,Clear,0,2013-03-22 09:35:00
4:54 AM,-2.2,-7.6,78,30.10,1.0,Calm,Calm,-,N/A,,Haze,0,2013-03-22 09:54:00
5:14 AM,-2.2,-7.6,78,30.10,0.8,Calm,Calm,-,N/A,,Haze,0,2013-03-22 10:14:00
5:34 AM,-2.2,-7.6,78,30.10,1.0,Calm,Calm,-,N/A,,Haze,0,2013-03-22 10:34:00
5:54 AM,-0.4,-5.8,78,30.10,7.0,Calm,Calm,-,N/A,,Clear,0,2013-03-22 10:54:00
6:14 AM,-2.2,-7.6,78,30.10,2.5,Calm,Calm,-,N/A,,Haze,0,2013-03-22 11:14:00
6:34 AM,-2.2,-7.6,78,30.11,10.0,Calm,Calm,-,N/A,,Clear,0,2013-03-22 11:34:00
6:54 AM,-2.2,-7.6,78,30.11,10.0,Calm,Calm,-,N/A,,Clear,0,2013-03-22 11:54:00
7:15 AM,-2.2,-7.6,78,30.11,7.0,Calm,Calm,-,N/A,,Clear,0,2013-03-22 12:15:00
7:34 AM,-2.2,-7.6,78,30.10,10.0,Calm,Calm,-,N/A,,Clear,0,2013-03-22 12:34:00
7:54 AM,-2.2,-9.4,71,30.11,10.0,Calm,Calm,-,N/A,,Clear,0,2013-03-22 12:54:00
8:14 AM,-2.2,-7.6,78,30.11,10.0,Calm,Calm,-,N/A,,Clear,0,2013-03-22 13:14:00
8:34 AM,-5.8,-11.2,77,30.11,10.0,Calm,Calm,-,N/A,,Clear,0,2013-03-22 13:34:00
8:54 AM,-4.0,-9.4,78,30.11,10.0,Calm,Calm,-,N/A,,Clear,0,2013-03-22 13:54:00
9:14 AM,-0.4,-5.8,78,30.11,10.0,Calm,Calm,-,N/A,,Clear,0,2013-03-22 14:14:00
9:34 AM,-0.4,-7.6,72,30.11,10.0,Calm,Calm,-,N/A,,Clear,0,2013-03-22 14:34:00
9:55 AM,-0.4,-5.8,78,30.11,10.0,Calm,Calm,-,N/A,,Clear,0,2013-03-22 14:55:00
10:14 AM,1.4,-4.0,78,30.11,10.0,Calm,Calm,-,N/A,,Clear,0,2013-03-22 15:14:00
10:34 AM,6.8,1.4,79,30.11,10.0,Calm,Calm,-,N/A,,Clear,0,2013-03-22 15:34:00
10:55 AM,8.6,3.2,79,30.10,10.0,ENE,3.5,-,N/A,,Clear,60,2013-03-22 15:55:00
11:14 AM,10.4,6.8,85,30.11,10.0,ENE,3.5,-,N/A,,Clear,70,2013-03-22 16:14:00
11:34 AM,14.0,8.6,79,30.10,10.0,ENE,5.8,-,N/A,,Clear,70,2013-03-22 16:34:00
11:54 AM,17.6,12.2,79,30.11,10.0,ENE,9.2,-,N/A,,Clear,60,2013-03-22 16:54:00
12:14 PM,19.4,15.8,86,30.10,10.0,ENE,10.4,-,N/A,,Clear,70,2013-03-22 17:14:00
12:34 PM,21.2,15.8,80,30.10,10.0,ENE,10.4,-,N/A,,Clear,60,2013-03-22 17:34:00
12:54 PM,21.2,17.6,86,30.09,10.0,NE,12.7,-,N/A,,Clear,50,2013-03-22 17:54:00
1:14 PM,21.2,17.6,86,30.09,10.0,ENE,11.5,-,N/A,,Clear,60,2013-03-22 18:14:00
1:34 PM,21.2,17.6,86,30.09,10.0,ENE,11.5,-,N/A,,Clear,70,2013-03-22 18:34:00
1:54 PM,23.0,17.6,80,30.08,10.0,ENE,11.5,-,N/A,,Clear,70,2013-03-22 18:54:00
2:14 PM,23.0,17.6,80,30.08,10.0,East,11.5,-,N/A,,Clear,90,2013-03-22 19:14:00
2:34 PM,24.8,19.4,80,30.08,10.0,East,9.2,-,N/A,,Clear,90,2013-03-22 19:34:00
2:54 PM,24.8,19.4,80,30.08,10.0,East,11.5,-,N/A,,Clear,100,2013-03-22 19:54:00
3:14 PM,24.8,19.4,80,30.08,10.0,East,11.5,-,N/A,,Clear,90,2013-03-22 20:14:00
3:34 PM,26.6,19.4,74,30.08,10.0,East,10.4,-,N/A,,Clear,90,2013-03-22 20:34:00
3:54 PM,26.6,19.4,74,30.08,10.0,East,11.5,-,N/A,,Clear,80,2013-03-22 20:54:00
4:14 PM,26.6,17.6,69,30.08,10.0,East,11.5,-,N/A,,Clear,80,2013-03-22 21:14:00
4:34 PM,24.8,17.6,74,30.08,10.0,East,11.5,-,N/A,,Clear,80,2013-03-22 21:34:00
4:54 PM,24.8,17.6,74,30.08,10.0,East,9.2,-,N/A,,Clear,80,2013-03-22 21:54:00
5:15 PM,24.8,17.6,74,30.08,10.0,ENE,11.5,-,N/A,,Clear,70,2013-03-22 22:15:00
5:34 PM,24.8,17.6,74,30.09,10.0,East,9.2,-,N/A,,Clear,80,2013-03-22 22:34:00
5:54 PM,24.8,17.6,74,30.09,10.0,ENE,9.2,-,N/A,,Clear,70,2013-03-22 22:54:00
6:15 PM,24.8,17.6,74,30.09,10.0,East,6.9,-,N/A,,Clear,80,2013-03-22 23:15:00
6:34 PM,23.0,15.8,74,30.09,10.0,ENE,9.2,-,N/A,,Clear,70,2013-03-22 23:34:00
6:54 PM,19.4,12.2,74,30.09,10.0,NE,9.2,-,N/A,,Clear,50,2013-03-22 23:54:00
7:15 PM,19.4,12.2,74,30.10,10.0,NE,6.9,-,N/A,,Clear,50,2013-03-23 00:15:00
7:34 PM,17.6,12.2,79,30.10,10.0,NE,5.8,-,N/A,,Clear,50,2013-03-23 00:34:00
7:54 PM,15.8,10.4,79,30.10,10.0,NE,3.5,-,N/A,,Clear,40,2013-03-23 00:54:00
8:14 PM,15.8,10.4,79,30.10,10.0,NE,4.6,-,N/A,,Clear,40,2013-03-23 01:14:00
8:34 PM,15.8,10.4,79,30.11,10.0,NE,3.5,-,N/A,,Clear,40,2013-03-23 01:34:00
8:54 PM,17.6,12.2,79,30.11,10.0,ENE,5.8,-,N/A,,Clear,60,2013-03-23 01:54:00
9:14 PM,15.8,12.2,86,30.11,10.0,Calm,Calm,-,N/A,,Clear,0,2013-03-23 02:14:00
9:34 PM,15.8,10.4,79,30.11,10.0,North,3.5,-,N/A,,Clear,10,2013-03-23 02:34:00
9:54 PM,14.0,8.6,79,30.11,10.0,NW,6.9,-,N/A,,Clear,320,2013-03-23 02:54:00
10:14 PM,15.8,10.4,79,30.12,10.0,WNW,4.6,-,N/A,,Clear,290,2013-03-23 03:14:00
10:34 PM,15.8,10.4,79,30.11,10.0,WNW,5.8,-,N/A,,Clear,300,2013-03-23 03:34:00
10:54 PM,15.8,10.4,79,30.12,10.0,NW,5.8,-,N/A,,Clear,310,2013-03-23 03:54:00
11:14 PM,15.8,10.4,79,30.12,10.0,West,4.6,-,N/A,,Clear,270,2013-03-23 04:14:00
11:34 PM,15.8,10.4,79,30.12,10.0,West,5.8,-,N/A,,Clear,280,2013-03-23 04:34:00
11:54 PM,14.0,8.6,79,30.12,10.0,West,5.8,-,N/A,,Clear,280,2013-03-23 04:54:00